[[{"header":{"parameterUnit":"m.s-1","parameterCategory":1,"la1":30.2991,"la2":30.254,"lo1":-89.0895,"lo2":-89.0444,"dy":0.0017,"dx":0.0017,"nx":28,"ny":28,"refTime":"2024-06-10T09:00:00:Z","depth":0,"parameterNumber":2,"parameterNumberName":"U-component_of_WINDS"},"data":[0,0,0,0,0,0,0,0,0,0,0,0,0,0,0,0,0,0,0,0,0,0,0,0,0,0,0,0,0,0,0,0,0,0,0,0,0,0,0,0,0,0,0,0,0,0,0,0,0,0,0,0,0,0,0,0,0,0,-2.1178,-2.118,0,-2.1326,-2.1328,-2.133,-2.1342,-2.1341,-2.1339,-2.1338,-2.1488,-2.1494,-2.1499,0,0,0,0,0,0,0,0,0,0,0,0,0,-2.0906,-2.0911,-2.1178,-2.118,-2.1182,-2.1326,-2.1328,-2.133,-2.1343,-2.1341,-2.1339,-2.1337,-2.1486,-2.1493,-2.1499,0,0,0,0,0,0,0,0,0,0,0,0,0,-2.1036,-2.0913,-2.1178,-2.1206,-2.121,-2.1325,-2.1328,-2.133,-2.1343,-2.1341,-2.1338,-2.1336,-2.1484,-2.1492,-2.15,-2.1598,0,0,-2.1525,-2.1529,0,0,0,0,0,0,0,0,-2.1029,-2.1046,-2.12,-2.1204,-2.1209,-2.1314,-2.1287,-2.142,-2.1344,-2.1292,-2.1338,-2.1335,-2.1432,-2.1444,-2.1477,-2.1605,-2.1612,-2.1526,-2.1531,-2.1535,-2.1537,0,0,0,0,0,0,0,-2.102,-2.104,-2.1237,-2.1202,-2.1208,-2.1211,-2.1226,-2.1313,-2.1374,-2.1297,-2.1298,-2.1315,-2.1434,-2.1469,-2.1481,-2.1614,-2.1526,-2.1533,-2.1538,-2.1542,-2.183,-2.1832,0,0,0,0,0,0,-2.1006,-2.1032,-2.1232,-2.1241,-2.1111,-2.1217,-2.1235,-2.1282,-2.1373,-2.1384,-2.1317,-2.1315,-2.1456,-2.1471,-2.1486,-2.1606,-2.1535,-2.1542,-2.1547,-2.1827,-2.183,-2.1833,0,0,0,0,0,0,-2.1,-2.1024,-2.1226,-2.1137,-2.1163,-2.1225,-2.1277,-2.1286,-2.1322,-2.1388,-2.1399,-2.1342,-2.1455,-2.1475,-2.157,-2.1612,-2.1546,-2.1553,-2.1824,-2.1828,-2.1832,-2.1848,0,0,0,0,0,0,-2.0992,-2.1021,-2.1059,-2.1138,-2.1168,-2.1308,-2.128,-2.1291,-2.1336,-2.1335,-2.1414,-2.1425,-2.1455,-2.1558,-2.1578,-2.1622,-2.156,-2.182,-2.1826,-2.183,-2.1844,-2.1852,-2.1859,0,0,0,0,0,-2.0982,-2.1058,-2.1061,-2.1085,-2.1217,-2.131,-2.1327,-2.136,-2.1339,-2.1378,-2.1421,-2.1423,-2.1604,-2.1568,-2.1591,-2.1637,-2.1818,-2.1824,-2.183,-2.184,-2.185,-2.1858,0,0,0,0,0,0,-2.0982,-2.1068,-2.1073,-2.1176,-2.1236,-2.1312,-2.1362,-2.1369,-2.1436,-2.1432,-2.1469,-2.1487,-2.1582,-2.1619,-2.1577,-2.1737,-2.1709,-2.172,-2.1708,-2.1718,-2.1726,-2.1714,-2.1567,0,0,0,0,0,-2.0994,-2.1063,-2.1135,-2.1219,-2.1248,-2.13,-2.1342,-2.1362,-2.1425,-2.145,-2.15,-2.1561,-2.1632,-2.1677,-2.1746,-2.185,-2.1867,-2.1893,-2.19,-2.1906,-2.1915,-2.1972,-2.1984,-2.1853,-2.1853,-2.1853,0,0,-2.1019,-2.1075,-2.1116,-2.122,-2.1268,-2.1339,-2.1321,-2.1396,-2.1449,-2.1462,-2.1555,-2.1594,-2.1664,-2.1764,-2.1811,-2.1798,-2.1955,-2.1914,-2.1918,-2.1924,-2.198,-2.1992,-2.2003,-2.1858,-2.1857,-2.1856,0,0,-2.11,-2.115,-2.1225,-2.1274,-2.1348,-2.1382,-2.14,-2.1476,-2.1502,-2.1597,-2.1608,-2.1671,-2.1792,-2.1841,-2.1882,-2.1983,-2.1988,-2.2005,-2.2044,-2.2099,-2.2109,-2.2118,-2.2154,-2.2166,-2.2014,-2.2014,-2.2014,0,-2.1122,-2.1228,-2.1263,-2.1338,-2.1383,-2.1399,-2.1475,-2.1521,-2.1613,-2.1644,-2.1629,-2.1782,-2.183,-2.1942,-2.1966,-2.1999,-2.2021,-2.1995,-2.2105,-2.2115,-2.2124,-2.2158,-2.2171,-2.2015,-2.2015,-2.2015,-2.2015,0,-2.1251,-2.1325,-2.1377,-2.1466,-2.1517,-2.1592,-2.1638,-2.1686,-2.1701,-2.1737,-2.1833,-2.1892,-2.1973,-2.2001,-2.2017,-2.2115,-2.2105,-2.2097,-2.207,-2.2137,-2.217,-2.2183,-2.2017,-2.2017,-2.2016,-2.2016,0,0,-2.1335,-2.1443,-2.1461,-2.1501,-2.1585,-2.1642,-2.1718,-2.1798,-2.1838,-2.1901,-2.1965,-2.2068,-2.2061,-2.2108,-2.213,-2.2179,-2.2254,-2.2165,-2.2167,-2.2179,-2.2365,-2.2369,-2.2384,-2.2258,-2.2261,-2.2263,-2.2359,0,-2.1425,-2.1561,-2.1594,-2.171,-2.1778,-2.1794,-2.1861,-2.1919,-2.1954,-2.2017,-2.2056,-2.2128,-2.2114,-2.2143,-2.2192,-2.2235,-2.2292,-2.2228,-2.2318,-2.232,-2.2298,-2.2401,-2.2406,-2.2493,-2.2372,-2.2374,-2.2376,0,-2.1548,-2.1614,-2.1737,-2.1811,-2.1841,-2.19,-2.1975,-2.2036,-2.2102,-2.2124,-2.2177,-2.2194,-2.2273,-2.2243,-2.2353,-2.2309,-2.2348,-2.2374,-2.2378,-2.2387,-2.2351,-2.2411,-2.2522,-2.2534,-2.2396,-2.2395,-2.2393,0,-2.1595,-2.1715,-2.1804,-2.1839,-2.1928,-2.1969,-2.2008,-2.2072,-2.2117,-2.2183,-2.2213,-2.2288,-2.2328,-2.2386,-2.2422,-2.2397,-2.2529,-2.2502,-2.2549,-2.2548,-2.2575,-2.2573,-2.2692,-2.2602,-2.2602,-2.2602,-2.2602,0,-2.1691,-2.1765,-2.1827,-2.1881,-2.1965,-2.2003,-2.2084,-2.2124,-2.2181,-2.2243,-2.2262,-2.232,-2.2366,-2.243,-2.246,-2.2546,-2.2564,-2.2584,-2.2591,-2.2582,-2.2579,-2.2606,-2.2601,-2.2605,-2.2605,-2.2604,-2.2603,0,-2.1758,-2.1802,-2.19,-2.1976,-2.1997,-2.2056,-2.2121,-2.2174,-2.2211,-2.2289,-2.231,-2.2367,-2.2444,-2.2487,-2.2583,-2.2603,-2.2699,-2.2703,-2.2676,-2.2679,-2.2723,-2.2718,-2.2864,-2.2884,-2.2782,-2.2783,-2.2784,0,-2.1815,-2.1873,-2.1956,-2.1999,-2.2039,-2.2108,-2.2155,-2.2195,-2.2243,-2.2323,-2.2366,-2.2444,-2.2509,-2.2631,-2.268,-2.2754,-2.276,-2.2806,-2.2771,-2.276,-2.2759,-2.2754,-2.276,-2.2811,-2.2812,-2.2813,-2.2813,0,-2.1913,-2.1932,-2.1999,-2.2074,-2.2129,-2.219,-2.225,-2.2284,-2.2334,-2.2387,-2.2466,-2.2516,-2.2615,-2.2691,-2.2769,-2.2809,-2.282,-2.2824,-2.2839,-2.2829,-2.2811,-2.282,-2.2691,-2.282,-2.282,-2.2819,-2.2819,-2.2819,-2.1976,-2.2028,-2.2094,-2.2168,-2.2218,-2.2273,-2.2327,-2.2371,-2.2437,-2.2521,-2.254,-2.2623,-2.2688,-2.2794,-2.2836,-2.2902,-2.2893,-2.2914,-2.292,-2.2924,-2.2925,-2.2802,-2.2916,-2.2916,-2.2916,-2.2916,-2.2916,0,-2.2073,-2.2117,-2.2185,-2.2268,-2.2326,-2.2332,-2.2399,-2.2447,-2.252,-2.258,-2.2643,-2.2733,-2.2808,-2.2865,-2.2941,-2.2982,-2.2989,-2.3001,-2.2998,-2.3006,-2.2929,-2.2908,-2.2994,-2.2994,-2.2994,-2.2994,-2.2994,-2.2994,-2.213,-2.2218,-2.2245,-2.2357,-2.2401,-2.2482,-2.252,-2.2571,-2.2619,-2.272,-2.2782,-2.2818,-2.2877,-2.2958,-2.3027,-2.3042,-2.3068,-2.308,-2.3094,-2.3021,-2.3012,-2.3004,-2.2984,-2.3085,-2.3086,-2.3167,-2.3167,-2.3168]},{"header":{"parameterUnit":"m.s-1","parameterCategory":1,"la1":30.2991,"la2":30.254,"lo1":-89.0895,"lo2":-89.0444,"dy":0.0017,"dx":0.0017,"nx":28,"ny":28,"refTime":"2024-06-10T09:00:00:Z","depth":0,"parameterNumber":3,"parameterNumberName":"V-component_of_WINDS"},"data":[0,0,0,0,0,0,0,0,0,0,0,0,0,0,0,0,0,0,0,0,0,0,0,0,0,0,0,0,0,0,0,0,0,0,0,0,0,0,0,0,0,0,0,0,0,0,0,0,0,0,0,0,0,0,0,0,0,0,-2.0649,-2.065,0,-2.07,-2.07,-2.0701,-2.0692,-2.0691,-2.069,-2.069,-2.074,-2.0743,-2.0745,0,0,0,0,0,0,0,0,0,0,0,0,0,-2.0544,-2.0546,-2.0649,-2.065,-2.065,-2.0699,-2.07,-2.0701,-2.0692,-2.0691,-2.069,-2.0689,-2.074,-2.0742,-2.0745,0,0,0,0,0,0,0,0,0,0,0,0,0,-2.0592,-2.0547,-2.0649,-2.0652,-2.0653,-2.0699,-2.07,-2.0701,-2.0692,-2.0691,-2.069,-2.0689,-2.0739,-2.0742,-2.0745,-2.0792,0,0,-2.0755,-2.0757,0,0,0,0,0,0,0,0,-2.0589,-2.0595,-2.0651,-2.0652,-2.0653,-2.0688,-2.0682,-2.0731,-2.0693,-2.0677,-2.0689,-2.0688,-2.0724,-2.0728,-2.0741,-2.0794,-2.0796,-2.0755,-2.0757,-2.0759,-2.076,0,0,0,0,0,0,0,-2.0586,-2.0593,-2.0669,-2.0652,-2.0653,-2.065,-2.0656,-2.0691,-2.0707,-2.0679,-2.0678,-2.0684,-2.0724,-2.0738,-2.0742,-2.0797,-2.0755,-2.0758,-2.076,-2.0762,-2.0889,-2.0891,0,0,0,0,0,0,-2.0581,-2.059,-2.0667,-2.0671,-2.0617,-2.0653,-2.0659,-2.0678,-2.0707,-2.071,-2.0685,-2.0684,-2.0733,-2.0738,-2.0744,-2.0799,-2.0759,-2.0762,-2.0764,-2.0888,-2.089,-2.0891,0,0,0,0,0,0,-2.0579,-2.0588,-2.0665,-2.063,-2.064,-2.0657,-2.0678,-2.068,-2.0693,-2.0712,-2.0715,-2.0696,-2.0732,-2.0739,-2.078,-2.0801,-2.0763,-2.0766,-2.0886,-2.0889,-2.0891,-2.0911,0,0,0,0,0,0,-2.0576,-2.0588,-2.0606,-2.0631,-2.0642,-2.0701,-2.0679,-2.0682,-2.0699,-2.0697,-2.0723,-2.0726,-2.0731,-2.0775,-2.0783,-2.0805,-2.0769,-2.0884,-2.0887,-2.089,-2.0908,-2.0914,-2.0918,0,0,0,0,0,-2.0573,-2.061,-2.0607,-2.0616,-2.0665,-2.0702,-2.0709,-2.0714,-2.0701,-2.0719,-2.0731,-2.0725,-2.0797,-2.0779,-2.0788,-2.0811,-2.0883,-2.0887,-2.089,-2.0906,-2.0913,-2.0918,0,0,0,0,0,0,-2.0587,-2.0613,-2.061,-2.0657,-2.0677,-2.0701,-2.0724,-2.0721,-2.0746,-2.0743,-2.0749,-2.0755,-2.0796,-2.0807,-2.0787,-2.0857,-2.0838,-2.0843,-2.0848,-2.0854,-2.0858,-2.0855,-2.0772,0,0,0,0,0,-2.0596,-2.0624,-2.0645,-2.0684,-2.0695,-2.0707,-2.0724,-2.0726,-2.0748,-2.0757,-2.0772,-2.0792,-2.0819,-2.0837,-2.0863,-2.091,-2.0915,-2.093,-2.0935,-2.0939,-2.0943,-2.0968,-2.0974,-2.0902,-2.0902,-2.0902,0,0,-2.0614,-2.0632,-2.0649,-2.0687,-2.0704,-2.0732,-2.0715,-2.0746,-2.0767,-2.0761,-2.08,-2.0812,-2.0835,-2.0879,-2.0899,-2.089,-2.0964,-2.0943,-2.0946,-2.0948,-2.0972,-2.0978,-2.0985,-2.0904,-2.0904,-2.0903,0,0,-2.0661,-2.0678,-2.0712,-2.0728,-2.0753,-2.0761,-2.0769,-2.0793,-2.08,-2.084,-2.0835,-2.086,-2.0907,-2.0924,-2.0938,-2.0991,-2.0986,-2.0999,-2.1024,-2.1048,-2.1053,-2.1058,-2.1076,-2.1083,-2.1003,-2.1003,-2.1004,0,-2.0681,-2.0724,-2.0729,-2.0761,-2.0778,-2.0773,-2.0807,-2.0823,-2.0855,-2.0866,-2.0855,-2.0914,-2.0929,-2.0976,-2.0989,-2.1001,-2.101,-2.0996,-2.1052,-2.1057,-2.1062,-2.1079,-2.1086,-2.1005,-2.1005,-2.1005,-2.1004,0,-2.0746,-2.0776,-2.08,-2.0831,-2.085,-2.0883,-2.0893,-2.0911,-2.0912,-2.0921,-2.096,-2.0979,-2.1008,-2.1019,-2.102,-2.1066,-2.106,-2.1051,-2.1032,-2.107,-2.1086,-2.1093,-2.1007,-2.1006,-2.1006,-2.1006,0,0,-2.0805,-2.0838,-2.0846,-2.086,-2.0886,-2.0909,-2.0941,-2.097,-2.0985,-2.1007,-2.1034,-2.1073,-2.1064,-2.1081,-2.1084,-2.1105,-2.1144,-2.1093,-2.1093,-2.1101,-2.1194,-2.1201,-2.1208,-2.1141,-2.1142,-2.1143,-2.1192,0,-2.0855,-2.0911,-2.0916,-2.0967,-2.0994,-2.099,-2.1017,-2.1036,-2.1045,-2.1069,-2.1079,-2.1106,-2.1093,-2.1103,-2.1124,-2.1135,-2.1163,-2.1131,-2.1165,-2.1166,-2.1159,-2.1217,-2.1224,-2.127,-2.1199,-2.12,-2.1201,0,-2.092,-2.0944,-2.0997,-2.1019,-2.103,-2.1055,-2.1081,-2.1104,-2.1125,-2.113,-2.1148,-2.1148,-2.1179,-2.1159,-2.1203,-2.1182,-2.1196,-2.1203,-2.1205,-2.1208,-2.1186,-2.1221,-2.1284,-2.1291,-2.1211,-2.121,-2.1209,0,-2.0957,-2.1002,-2.1039,-2.1051,-2.1077,-2.1095,-2.1106,-2.1126,-2.1142,-2.1165,-2.1176,-2.1202,-2.1216,-2.1236,-2.1242,-2.1227,-2.1285,-2.1266,-2.129,-2.129,-2.1302,-2.1301,-2.1368,-2.1312,-2.1312,-2.1311,-2.1311,0,-2.1012,-2.1044,-2.1056,-2.1079,-2.1115,-2.112,-2.1156,-2.1166,-2.1183,-2.1208,-2.1206,-2.1229,-2.1236,-2.126,-2.1265,-2.1299,-2.1306,-2.131,-2.1311,-2.1311,-2.131,-2.132,-2.1317,-2.1313,-2.1313,-2.1312,-2.1312,0,-2.1059,-2.1068,-2.1109,-2.113,-2.1136,-2.1162,-2.1179,-2.1201,-2.1209,-2.124,-2.1248,-2.1261,-2.1289,-2.1297,-2.133,-2.1334,-2.1374,-2.1373,-2.1368,-2.1368,-2.1391,-2.1388,-2.1466,-2.1476,-2.1413,-2.1414,-2.1414,0,-2.1093,-2.1118,-2.1142,-2.1158,-2.117,-2.1197,-2.1213,-2.1219,-2.1237,-2.1262,-2.128,-2.1308,-2.133,-2.1375,-2.1387,-2.1412,-2.1411,-2.1436,-2.1415,-2.1413,-2.1411,-2.1409,-2.1411,-2.144,-2.1441,-2.1441,-2.1442,0,-2.1153,-2.1156,-2.118,-2.1206,-2.1226,-2.1246,-2.1266,-2.1279,-2.1288,-2.1307,-2.1336,-2.1353,-2.1387,-2.1414,-2.144,-2.1451,-2.1448,-2.1448,-2.1455,-2.1455,-2.145,-2.1452,-2.1378,-2.1447,-2.1446,-2.1446,-2.1446,-2.1445,-2.1194,-2.1216,-2.1236,-2.1263,-2.1278,-2.1296,-2.1317,-2.1328,-2.1352,-2.138,-2.1382,-2.1413,-2.1432,-2.1466,-2.1478,-2.1502,-2.1494,-2.1504,-2.1507,-2.1509,-2.1511,-2.1447,-2.1507,-2.1506,-2.1506,-2.1506,-2.1506,0,-2.1253,-2.1266,-2.129,-2.1318,-2.1339,-2.1333,-2.1355,-2.1372,-2.1399,-2.1418,-2.144,-2.1472,-2.1498,-2.1511,-2.1537,-2.1553,-2.1552,-2.156,-2.1559,-2.1561,-2.1516,-2.1508,-2.156,-2.156,-2.156,-2.156,-2.156,-2.156,-2.1287,-2.1322,-2.1328,-2.1371,-2.1383,-2.1413,-2.1425,-2.1442,-2.1456,-2.1492,-2.1514,-2.1523,-2.1539,-2.1566,-2.1589,-2.1592,-2.1602,-2.161,-2.1612,-2.157,-2.1565,-2.1559,-2.1551,-2.1612,-2.1612,-2.1655,-2.1656,-2.1656]}]]